Home   Weather   Sion   Past weeks
Flag for Switzerland

Past Weather in Sion, Valais, Switzerland — Yesterday and Last 2 Weeks

Now
56 °F

Cool.


Feels Like: 56 °F
Forecast: 61 / 49 °F
Wind: 1 mph from South

Location: Sion

Current Time: Sep 23, 2019 at 10:02:14 pm

Latest Report: Sep 23, 2019 at 9:00 pm


Visibility: N/A

Pressure: 30.05 "Hg (28.27 "Hg at 514m altitude)

Humidity: 69%

Dew Point: 46 °F

Location of SionLocation

Past Weather in Sion — Graph

°F

Sion Temperature Yesterday

Maximum temperature yesterday: 80 °F (at 3:00 pm)
Minimum temperature yesterday: 59 °F (at 6:00 am)
Average temperature yesterday: 67 °F

High & Low Weather Summary for the Past Weeks

 TemperatureHumidityPressure
High85 °F (Sep 16, 5:00 pm)90% (Sep 21, 7:00 am)30.53 "Hg (Sep 21, 7:00 am)
Low48 °F (Sep 9, 7:00 am)30% (Sep 22, 2:00 pm)29.74 "Hg (Sep 22, 3:00 pm)
Average64 °F64%30.13 "Hg
* Reported Sep 8 8:00 pm — Sep 23 8:00 pm, Sion. Weather by CustomWeather, © 2019

Note: Actual official high and low records may vary slightly from our data, if they occured in-between our weather recording intervals... More about our weather records

Advertising

Sion Weather History for the Previous 24 Hours

Scroll right to see more
 ConditionsComfort  
Time TempWeatherWind HumidityBarometerVisibility
8:00 pm
Mon, Sep 23
62 °FRefreshingly cool.6 mph52%30.01 "HgN/A
7:00 pm64 °FMild.12 mph46%29.98 "HgN/A
6:00 pm68 °FMild.17 mph42%29.96 "HgN/A
5:00 pm69 °FMild.16 mph42%29.94 "HgN/A
4:00 pm70 °FMild.16 mph42%29.95 "HgN/A
3:00 pm71 °FMild.22 mph42%29.93 "HgN/A
2:00 pm69 °FMild.22 mph45%29.94 "HgN/A
1:00 pm68 °FMild.18 mph47%29.96 "HgN/A
12:00 pm66 °FMild.17 mph53%29.99 "HgN/A
11:00 am64 °FMild.3 mph61%30.01 "HgN/A
10:00 am61 °FCool.7 mph69%30.03 "HgN/A
9:00 am59 °FCool.6 mph76%30.03 "HgN/A
8:00 am58 °FCool.7 mph81%30.01 "HgN/A
7:00 am59 °FCool.6 mph80%29.99 "HgN/A
6:00 am58 °FCool.3 mph85%29.98 "HgN/A
5:00 am59 °FCool.2 mph83%29.98 "HgN/A
4:00 am59 °FCool.3 mph86%29.98 "HgN/A
3:00 am59 °FCool.5 mph87%29.98 "HgN/A
2:00 am59 °FCool.6 mph87%29.97 "HgN/A
1:00 am59 °FCool.16 mph89%29.95 "HgN/A
12:00 am64 °FMild.16 mph72%29.88 "HgN/A
11:00 pm
Sun, Sep 22
63 °FMild.1 mph66%29.85 "HgN/A
10:00 pm64 °FMild.1 mph66%29.85 "HgN/A
Weather by CustomWeather, © 2019

See weather overview